Hourly Data Report for October 06, 2017

All times are specified in Local Standard Time (LST). Add 1 hour to adjust for Daylight Saving Time where and when it is observed.

NORMAN WELLS A
NORTHWEST TERRITORIES

65°16'53.000" N
126°47'55.000" W
72.50 m
2202801
71043
YVQ

Download Data

Hourly Data (October 2017)
Hourly Data Report for October 6, 2017
Temp Definition
°C
Dew Point Temp Definition
°C
Rel Hum Definition
%
Wind Dir Definition
10's deg

Wind Spd Definition
km/h
Visibility Definition
km
Stn Press Definition
kPa
Hmdx Definition


Wind Chill Definition


Weather Definition


TIME
00:00 Legend Double Dagger 1.4 0.9 96 36 3 48.3 98.40     LegendNANA
01:00 Legend Double Dagger 2.2 1.4 95 13 9 48.3 98.35     LegendNANA
02:00 Legend Double Dagger 2.1 1.7 98 9 10 48.3 98.33     Mostly Cloudy
03:00 Legend Double Dagger 2.3 1.5 95 12 10 48.3 98.31     LegendNANA
04:00 Legend Double Dagger 2.8 2.0 94 10 8 48.3 98.30     LegendNANA
05:00 Legend Double Dagger 2.0 1.3 95 9 5 48.3 98.26     Mostly Cloudy
06:00 Legend Double Dagger 1.8 1.5 98 9 7 48.3 98.25     LegendNANA
07:00 Legend Double Dagger 1.5 1.2 98 8 9 48.3 98.26     LegendNANA
08:00 Legend Double Dagger 1.7 1.3 97 7 8 40.2 98.26     Cloudy
09:00 Legend Double Dagger 2.0 1.7 98 9 7 1.2 98.27     Fog
10:00 Legend Double Dagger 2.3 2.2 99 7 7 6.4 98.33     Fog
11:00 Legend Double Dagger 2.6 2.5 99 36 2 16.1 98.37     Cloudy
12:00 Legend Double Dagger 3.1 2.3 94 12 9 16.1 98.41     LegendNANA
13:00 Legend Double Dagger 3.7 2.5 92 2 5 48.3 98.46     LegendNANA
14:00 Legend Double Dagger 4.5 2.8 89 5 7 48.3 98.49     Cloudy
15:00 Legend Double Dagger 4.8 2.4 85 6 6 48.3 98.53     LegendNANA
16:00 Legend Double Dagger 4.6 2.4 86 34 7 48.3 98.60     LegendNANA
17:00 Legend Double Dagger 4.8 2.5 85 31 7 48.3 98.69     Mostly Cloudy
18:00 Legend Double Dagger 4.4 2.4 87 32 5 48.3 98.77     LegendNANA
19:00 Legend Double Dagger 4.1 2.4 88 30 7 48.3 98.84     LegendNANA
20:00 Legend Double Dagger 3.8 2.1 89 33 5 48.3 98.91     Rain
21:00 Legend Double Dagger 3.5 2.2 91 34 4 48.3 98.98     Rain Showers
22:00 Legend Double Dagger 3.7 1.8 87 29 8 48.3 99.06     LegendNANA
23:00 Legend Double Dagger 4.1 1.1 81 34 5 48.3 99.13     Cloudy

Notes on Data Quality.

Legend

  • E = Estimated
  • M = Missing
  • NA = Not Available
  • ‡ = Partner data that is not subject to review by the National Climate Archives
Date modified: